Location: Devore Heights
(34.2372°N, 117.4156°W)
Time: 22:42:45
(UTC+00:00)

Cosmos-2242 - Pass Details

Date: 13 June 2024
Orbit: 578 x 604 km, 82.5° (Epoch: 21 July)

Event Time Altitude Azimuth Distance (km) Brightness Sun altitude
Rises 11:59:10 0° 353° (N) 2,862 6.9 -7.5°
Reaches altitude 10° 12:01:23 10° 353° (N) 1,952 6.0 -7.1°
Maximum altitude 12:05:43 89° 260° (W) 605 3.0 -6.4°
Drops below altitude 10° 12:09:58 10° 175° (S) 1,924 5.3 -5.7°
Sets 12:12:09 0° 175° (S) 2,817 6.2 -5.3°
